Location: Jutrosin
(51.6502°N, 17.1725°E)
Time: 23:42:00
(UTC+02:00)

ISS - Visible Passes

Search period start: 25 September 2018 00:00
Search period end: 05 October 2018 00:00
Orbit: 403 x 408 km, 51.6° (Epoch: 26 September)

Date Brightness Start Highest point End Pass type
(mag) Time Alt. Az. Time Alt. Az. Time Alt. Az.
25 Sep -2.3 19:28:34 10° SSW 19:31:11 22° SE 19:33:24 12° E visible
25 Sep -2.5 21:04:03 10° WSW 21:06:06 34° WSW 21:06:06 34° WSW visible
26 Sep -3.6 20:12:16 10° SW 20:15:29 52° SSE 20:16:23 38° ESE visible
26 Sep -0.7 21:48:37 10° W 21:49:04 13° W 21:49:04 13° W visible
27 Sep -3.0 19:20:36 10° SW 19:23:41 37° SSE 19:26:35 11° E visible
27 Sep -3.1 20:56:42 10° W 20:59:15 50° W 20:59:15 50° W visible
28 Sep -3.9 20:04:48 10° WSW 20:08:06 75° SSE 20:09:23 34° E visible
28 Sep -0.9 21:41:18 10° W 21:42:03 16° W 21:42:03 16° W visible
29 Sep -3.6 19:12:58 10° WSW 19:16:13 59° SSE 19:19:26 10° E visible
29 Sep -3.3 20:49:22 10° W 20:52:07 58° W 20:52:07 58° W visible
30 Sep -3.9 19:57:24 10° W 20:00:43 90° SW 20:02:08 32° E visible
30 Sep -1.0 21:33:56 10° W 21:34:48 17° W 21:34:48 17° W visible
01 Oct -3.8 19:05:27 10° WSW 19:08:46 81° S 19:12:04 10° E visible
01 Oct -3.4 20:41:58 10° W 20:44:47 61° W 20:44:47 61° W visible
02 Oct -3.9 19:49:59 10° W 19:53:19 89° N 19:54:46 31° E visible
02 Oct -1.0 21:26:32 10° W 21:27:26 17° W 21:27:26 17° W visible
03 Oct -3.8 18:58:00 10° W 19:01:19 88° N 19:04:38 10° E visible
03 Oct -3.3 20:34:31 10° W 20:37:24 56° WSW 20:37:24 56° WSW visible
04 Oct -3.8 19:42:31 10° W 19:45:49 78° SSW 19:47:23 29° ESE visible
04 Oct -0.9 21:19:11 10° W 21:20:03 16° W 21:20:03 16° W visible
